User: anonymous   Login
Location: Azul
(36.7830°S, 59.8500°W)
Time: 09:23:47
(UTC-03:00)
Language:

SEEDS - Orbit

View from above orbital plane
View from above orbital plane
View from above satellite
View from above satellite

Ground track
Ground track

The orbit data is extracted from the following two-line orbital elements,

1 32791U 08021J   21294.69022843  .00000954  00000-0  10034-3 0  9994
2 32791  97.5849 274.5163 0011539 266.0235  93.9665 14.91588650731597
Epoch (UTC): 21 October 2021 16:33:55
Eccentricity: 0.0011539
inclination: 97.5849°
perigee height: 585 km
apogee height: 601 km
right ascension of ascending node: 274.5163°
argument of perigee: 266.0235°
revolutions per day: 14.91588650
mean anomaly at epoch: 93.9665°
orbit number at epoch: 73159

The dashed part of the orbit path shows where the satellite is in the earth's shadow,  

DLR